This demonstration page uses our WeatherBlox Daily Observations layout. Learn more.

Left ArrowRight Arrow

41.86663, -103.66717

Hourly Observations for November 28, 2016

Temp ( °F °C ) Dew Point ( °F °C ) Humidity (%) Winds ( mph kmh ) Pressure ( in mb ) Visibility ( mi km ) Precip ( " mm )
12:53 am 00:53 Clear 38 3.3 26 -3.3 62 62 W 17 28 29.27 991 10 16 N/A
1:53 am 01:53 Clear 36 2.2 26 -3.3 67 67 W 16 26 29.28 992 10 16 N/A
2:53 am 02:53 Clear 35 1.7 25 -3.9 67 67 W 16 26 29.29 992 10 16 N/A
3:53 am 03:53 Clear 34 1.1 24 -4.4 67 67 W 15 24 29.29 992 10 16 N/A
4:53 am 04:53 Clear 33 0.6 23 -5 66 66 W 15 24 29.30 992 10 16 N/A
5:53 am 05:53 Clear 33 0.6 23 -5 66 66 W 13 20 29.31 993 10 16 N/A
6:53 am 06:53 Clear 32 undefined 21 -6.1 64 64 W 13 20 29.31 993 10 16 N/A
7:53 am 07:53 Sunny 35 1.7 21 -6.1 57 57 WNW 17 28 29.31 993 10 16 N/A
8:53 am 08:53 Sunny 38 3.3 21 -6.1 51 51 WNW 15 24 29.31 993 10 16 N/A
9:53 am 09:53 Sunny 43 6.1 19 -7.2 38 38 WNW 23 37 29.30 992 10 16 N/A
10:53 am 10:53 Sunny 45 7.2 17 -8.3 33 33 W 22 35 29.29 992 10 16 N/A
11:53 am 11:53 Sunny 47 8.3 18 -7.8 31 31 W 24 39 29.25 991 10 16 N/A
12:53 pm 12:53 Cloudy 47 8.3 17 -8.3 30 30 WNW 18 30 29.25 990 10 16 N/A
1:53 pm 13:53 Cloudy 48 8.9 17 -8.3 29 29 W 23 37 29.25 990 10 16 N/A
2:53 pm 14:53 Mostly Cloudy 45 7.2 17 -8.3 33 33 W 26 43 29.27 991 10 16 N/A
3:53 pm 15:53 Cloudy 43 6.1 17 -8.3 35 35 WNW 20 31 29.30 992 10 16 N/A
4:53 pm 16:53 Cloudy 39 3.9 24 -4.4 55 55 WNW 16 26 29.34 994 10 16 N/A
5:53 pm 17:53 Mostly Cloudy 37 2.8 22 -5.6 54 54 WNW 16 26 29.36 994 10 16 N/A
6:53 pm 18:53 Mostly Cloudy 35 1.7 23 -5 61 61 WNW 12 19 29.39 995 10 16 N/A
7:53 pm 19:53 Clear 34 1.1 22 -5.6 61 61 W 14 22 29.40 996 10 16 N/A
8:53 pm 20:53 Clear 33 0.6 20 -6.7 58 58 W 13 20 29.41 996 10 16 N/A
9:53 pm 21:53 Mostly Cloudy 32 undefined 19 -7.2 59 59 WNW 13 20 29.42 996 10 16 N/A
10:53 pm 22:53 Clear 34 1.1 21 -6.1 59 59 WNW 20 31 29.42 996 10 16 N/A
11:53 pm 23:53 Cloudy 35 1.7 22 -5.6 59 59 NW 23 37 29.42 996 10 16 N/A

Powered by AerisWeather